| time (UTC) | temp F | wind direction | speed knots | gust knots | rain 1hr in | rain 24hr in | rain mn in | humidity % | barometer mb |
| 20260505041519 | 72 | 189 | 7.8 | 13.0 | 0.00 | 0.00 | 0.00 | 89 | 1010.0 |
| 20260505041026 | 72 | 198 | 5.2 | 7.8 | 0.00 | 0.00 | 0.00 | 88 | 1010.0 |
| 20260505040532 | 72 | 176 | 7.8 | 11.3 | 0.00 | 0.00 | 0.00 | 88 | 1010.0 |
| 20260505040021 | 72 | 161 | 8.7 | 11.3 | 0.00 | 0.00 | 0.00 | 88 | 1010.1 |
| 20260505035528 | 73 | 208 | 7.8 | 12.2 | 0.00 | 0.00 | 0.00 | 88 | 1010.1 |
| 20260505035016 | 73 | 197 | 6.1 | 9.6 | 0.00 | 0.00 | 0.00 | 87 | 1010.1 |
| 20260505034522 | 73 | 175 | 6.1 | 10.4 | 0.00 | 0.00 | 0.00 | 87 | 1010.1 |
| 20260505034029 | 73 | 157 | 7.0 | 11.3 | 0.00 | 0.00 | 0.00 | 87 | 1010.1 |
| 20260505033518 | 73 | 184 | 5.2 | 7.0 | 0.00 | 0.00 | 0.00 | 86 | 1010.1 |
| 20260505033024 | 73 | 178 | 4.3 | 6.1 | 0.00 | 0.00 | 0.00 | 86 | 1010.1 |
| 20260505032531 | 73 | 153 | 5.2 | 9.6 | 0.00 | 0.00 | 0.00 | 86 | 1010.0 |
| 20260505032039 | 73 | 156 | 5.2 | 7.8 | 0.00 | 0.00 | 0.00 | 86 | 1010.0 |
| 20260505031546 | 73 | 185 | 7.0 | 9.6 | 0.00 | 0.00 | 0.00 | 85 | 1010.0 |
| 20260505031032 | 73 | 176 | 5.2 | 7.0 | 0.00 | 0.00 | 0.00 | 85 | 1010.0 |
| 20260505030520 | 74 | 176 | 5.2 | 7.0 | 0.00 | 0.00 | 0.00 | 85 | 1010.0 |
| 20260505030027 | 74 | 207 | 4.3 | 7.0 | 0.00 | 0.00 | 0.00 | 84 | 1010.1 |
| 20260505025556 | 74 | 183 | 6.1 | 7.8 | 0.00 | 0.00 | 0.00 | 84 | 1010.1 |
| 20260505025022 | 74 | 163 | 6.1 | 9.6 | 0.00 | 0.00 | 0.00 | 83 | 1010.0 |
| 20260505024529 | 74 | 186 | 6.1 | 9.6 | 0.00 | 0.00 | 0.00 | 82 | 1010.0 |
| 20260505024017 | 74 | 171 | 6.1 | 10.4 | 0.00 | 0.00 | 0.00 | 82 | 1010.0 |
| 20260505023544 | 74 | 175 | 6.1 | 9.6 | 0.00 | 0.00 | 0.00 | 80 | 1009.8 |
| 20260505023030 | 75 | 186 | 4.3 | 7.8 | 0.00 | 0.00 | 0.00 | 80 | 1009.8 |
| 20260505022519 | 75 | 162 | 5.2 | 9.6 | 0.00 | 0.00 | 0.00 | 79 | 1009.8 |
| 20260505022045 | 75 | 184 | 7.0 | 9.6 | 0.00 | 0.00 | 0.00 | 79 | 1009.8 |
| 20260505021532 | 75 | 179 | 6.1 | 8.7 | 0.00 | 0.00 | 0.00 | 79 | 1009.8 |
| 20260505021020 | 75 | 186 | 6.1 | 7.8 | 0.00 | 0.00 | 0.00 | 78 | 1009.7 |
| 20260505020526 | 75 | 184 | 6.1 | 7.8 | 0.00 | 0.00 | 0.00 | 78 | 1009.7 |
| 20260505020015 | 75 | 171 | 6.1 | 9.6 | 0.00 | 0.00 | 0.00 | 78 | 1009.7 |
| 20260505015521 | 75 | 196 | 6.1 | 7.8 | 0.00 | 0.00 | 0.00 | 77 | 1009.7 |
| 20260505015028 | 75 | 188 | 6.1 | 8.7 | 0.00 | 0.00 | 0.00 | 77 | 1009.7 |
| 20260505014516 | 76 | 187 | 6.1 | 7.0 | 0.00 | 0.00 | 0.00 | 76 | 1009.8 |
| 20260505014123 | 76 | 160 | 6.1 | 9.6 | 0.00 | 0.00 | 0.00 | 76 | 1009.8 |
| 20260505013609 | 76 | 188 | 6.1 | 9.6 | 0.00 | 0.00 | 0.00 | 75 | 1009.7 |
| 20260505013018 | 76 | 234 | 4.3 | 8.7 | 0.00 | 0.00 | 0.00 | 75 | 1009.7 |
| 20260505012524 | 76 | 175 | 4.3 | 7.8 | 0.00 | 0.00 | 0.00 | 74 | 1009.7 |
| 20260505012031 | 77 | 189 | 5.2 | 7.8 | 0.00 | 0.00 | 0.00 | 73 | 1009.7 |
| 20260505011539 | 77 | 181 | 5.2 | 9.6 | 0.00 | 0.00 | 0.00 | 73 | 1009.7 |
| 20260505011026 | 77 | 222 | 6.1 | 11.3 | 0.00 | 0.00 | 0.00 | 72 | 1009.7 |
| 20260505010553 | 77 | 186 | 6.1 | 8.7 | 0.00 | 0.00 | 0.00 | 72 | 1009.7 |
| 20260505010021 | 77 | 193 | 6.1 | 7.8 | 0.00 | 0.00 | 0.00 | 71 | 1009.7 |
| 20260505005527 | 78 | 201 | 7.0 | 9.6 | 0.00 | 0.00 | 0.00 | 71 | 1009.7 |
| 20260505005015 | 78 | 186 | 7.0 | 11.3 | 0.00 | 0.00 | 0.00 | 70 | 1009.7 |
| 20260505004522 | 78 | 179 | 7.8 | 9.6 | 0.00 | 0.00 | 0.00 | 70 | 1009.7 |
| 20260505004029 | 78 | 190 | 7.0 | 11.3 | 0.00 | 0.00 | 0.00 | 69 | 1009.6 |
| 20260505003517 | 79 | 207 | 8.7 | 11.3 | 0.00 | 0.00 | 0.00 | 68 | 1009.6 |
| 20260505003024 | 79 | 186 | 7.8 | 10.4 | 0.00 | 0.00 | 0.00 | 68 | 1009.6 |
| 20260505002530 | 79 | 183 | 9.6 | 13.9 | 0.00 | 0.00 | 0.00 | 68 | 1009.5 |
| 20260505002019 | 79 | 224 | 7.8 | 11.3 | 0.00 | 0.00 | 0.00 | 68 | 1009.5 |
| 20260505001525 | 79 | 171 | 7.8 | 13.9 | 0.00 | 0.00 | 0.00 | 68 | 1009.5 |
| 20260505001032 | 79 | 188 | 7.8 | 9.6 | 0.00 | 0.00 | 0.00 | 68 | 1009.5 |
| 20260505000520 | 80 | 196 | 8.7 | 11.3 | 0.00 | 0.00 | 0.00 | 67 | 1009.5 |
| 20260505000027 | 80 | 171 | 8.7 | 13.0 | 0.00 | 0.00 | 0.00 | 67 | 1009.6 |
| 20260504235515 | 80 | 220 | 7.0 | 11.3 | 0.00 | 0.00 | 0.00 | 67 | 1009.6 |
| 20260504235022 | 80 | 236 | 9.6 | 13.0 | 0.00 | 0.00 | 0.00 | 67 | 1009.7 |
| 20260504234528 | 81 | 199 | 8.7 | 13.0 | 0.00 | 0.00 | 0.00 | 66 | 1009.8 |
| 20260504234037 | 81 | 199 | 9.6 | 17.4 | 0.00 | 0.00 | 0.00 | 67 | 1009.8 |
| 20260504233523 | 80 | 174 | 10.4 | 15.6 | 0.00 | 0.00 | 0.00 | 67 | 1009.8 |
| 20260504233030 | 80 | 186 | 7.8 | 13.9 | 0.00 | 0.00 | 0.00 | 66 | 1009.8 |
| 20260504232518 | 81 | 186 | 9.6 | 14.8 | 0.00 | 0.00 | 0.00 | 66 | 1009.8 |
| 20260504232045 | 81 | 166 | 7.8 | 14.8 | 0.00 | 0.00 | 0.00 | 66 | 1009.8 |
| 20260504231531 | 81 | 183 | 9.6 | 11.3 | 0.00 | 0.00 | 0.00 | 66 | 1010.0 |
| 20260504231020 | 81 | 177 | 10.4 | 13.9 | 0.00 | 0.00 | 0.00 | 66 | 1010.1 |
| 20260504230527 | 81 | 184 | 10.4 | 14.8 | 0.00 | 0.00 | 0.00 | 65 | 1010.1 |
| 20260504230053 | 82 | 197 | 8.7 | 11.3 | 0.00 | 0.00 | 0.00 | 64 | 1010.2 |
| 20260504225546 | 82 | 201 | 11.3 | 16.5 | 0.00 | 0.00 | 0.00 | 64 | 1010.2 |
| 20260504225048 | 82 | 167 | 10.4 | 15.6 | 0.00 | 0.00 | 0.00 | 64 | 1010.4 |
| 20260504224536 | 82 | 195 | 7.8 | 12.2 | 0.00 | 0.00 | 0.00 | 64 | 1010.5 |
| 20260504224023 | 82 | 195 | 10.4 | 13.9 | 0.00 | 0.00 | 0.00 | 63 | 1010.4 |
| 20260504223529 | 82 | 187 | 7.0 | 11.3 | 0.00 | 0.00 | 0.00 | 63 | 1010.2 |
| 20260504223017 | 83 | 195 | 10.4 | 15.6 | 0.00 | 0.00 | 0.00 | 63 | 1010.2 |
| 20260504222524 | 83 | 173 | 7.8 | 12.2 | 0.00 | 0.00 | 0.00 | 62 | 1010.3 |
| 20260504222031 | 84 | 188 | 10.4 | 13.9 | 0.00 | 0.00 | 0.00 | 63 | 1010.4 |
| 20260504221519 | 83 | 169 | 7.8 | 9.6 | 0.00 | 0.00 | 0.00 | 64 | 1010.4 |
| 20260504221025 | 83 | 218 | 8.7 | 12.2 | 0.00 | 0.00 | 0.00 | 64 | 1010.5 |
| 20260504220532 | 84 | 184 | 7.8 | 13.9 | 0.00 | 0.00 | 0.00 | 63 | 1010.5 |
| 20260504220020 | 83 | 164 | 8.7 | 12.2 | 0.00 | 0.00 | 0.00 | 63 | 1010.5 |
| 20260504215547 | 83 | 170 | 10.4 | 12.2 | 0.00 | 0.00 | 0.00 | 63 | 1010.5 |
| 20260504215015 | 84 | 230 | 8.7 | 14.8 | 0.00 | 0.00 | 0.00 | 63 | 1010.6 |
| 20260504214522 | 83 | 175 | 8.7 | 13.0 | 0.00 | 0.00 | 0.00 | 63 | 1010.6 |
| 20260504214028 | 82 | 175 | 9.6 | 13.0 | 0.00 | 0.00 | 0.00 | 64 | 1010.7 |
| 20260504213517 | 83 | 170 | 7.8 | 11.3 | 0.00 | 0.00 | 0.00 | 63 | 1010.9 |
| 20260504213044 | 83 | 219 | 8.7 | 13.0 | 0.00 | 0.00 | 0.00 | 63 | 1010.9 |
| 20260504212550 | 83 | 198 | 8.7 | 13.0 | 0.00 | 0.00 | 0.00 | 62 | 1011.1 |
| 20260504212018 | 83 | 166 | 8.7 | 12.2 | 0.00 | 0.00 | 0.00 | 63 | 1011.1 |
| 20260504211525 | 83 | 193 | 9.6 | 13.9 | 0.00 | 0.00 | 0.00 | 63 | 1011.2 |
| 20260504211032 | 84 | 173 | 8.7 | 12.2 | 0.00 | 0.00 | 0.00 | 63 | 1011.4 |
| 20260504210520 | 83 | 185 | 7.8 | 12.2 | 0.00 | 0.00 | 0.00 | 63 | 1011.4 |
| 20260504210026 | 83 | 185 | 7.0 | 9.6 | 0.00 | 0.00 | 0.00 | 64 | 1011.5 |
| 20260504205515 | 82 | 194 | 9.6 | 13.0 | 0.00 | 0.00 | 0.00 | 64 | 1011.5 |
| 20260504205021 | 82 | 200 | 7.0 | 10.4 | 0.00 | 0.00 | 0.00 | 65 | 1011.6 |
| 20260504204528 | 81 | 187 | 8.7 | 11.3 | 0.00 | 0.00 | 0.00 | 65 | 1011.7 |
| 20260504204016 | 81 | 201 | 7.8 | 10.4 | 0.00 | 0.00 | 0.00 | 65 | 1011.8 |
| 20260504203523 | 81 | 192 | 8.7 | 11.3 | 0.00 | 0.00 | 0.00 | 65 | 1012.0 |
| 20260504203050 | 81 | 214 | 9.6 | 12.2 | 0.00 | 0.00 | 0.00 | 65 | 1012.0 |
| 20260504202518 | 81 | 216 | 7.8 | 14.8 | 0.00 | 0.00 | 0.00 | 66 | 1012.1 |
| 20260504202044 | 81 | 183 | 7.0 | 12.2 | 0.00 | 0.00 | 0.00 | 65 | 1012.2 |
| 20260504201531 | 83 | 202 | 7.8 | 11.3 | 0.00 | 0.00 | 0.00 | 64 | 1012.2 |
| 20260504201019 | 82 | 210 | 7.8 | 9.6 | 0.00 | 0.00 | 0.00 | 64 | 1012.4 |
| 20260504200526 | 82 | 166 | 7.8 | 10.4 | 0.00 | 0.00 | 0.00 | 64 | 1012.4 |
| 20260504200032 | 82 | 185 | 7.8 | 10.4 | 0.00 | 0.00 | 0.00 | 65 | 1012.7 |
| 20260504195521 | 81 | 177 | 7.8 | 13.0 | 0.00 | 0.00 | 0.00 | 65 | 1012.7 |
| 20260504195027 | 81 | 168 | 8.7 | 13.0 | 0.00 | 0.00 | 0.00 | 64 | 1012.7 |
| 20260504194516 | 80 | 202 | 7.0 | 10.4 | 0.00 | 0.00 | 0.00 | 66 | 1012.7 |
| 20260504194022 | 80 | 142 | 7.8 | 10.4 | 0.00 | 0.00 | 0.00 | 66 | 1012.8 |
| 20260504193529 | 81 | 188 | 7.8 | 10.4 | 0.00 | 0.00 | 0.00 | 65 | 1012.9 |
| 20260504193017 | 81 | 206 | 8.7 | 16.5 | 0.00 | 0.00 | 0.00 | 65 | 1012.9 |
| 20260504192524 | 81 | 192 | 7.8 | 13.0 | 0.00 | 0.00 | 0.00 | 65 | 1013.0 |
| 20260504192031 | 80 | 157 | 8.7 | 12.2 | 0.00 | 0.00 | 0.00 | 66 | 1013.1 |
| 20260504191519 | 80 | 192 | 8.7 | 14.8 | 0.00 | 0.00 | 0.00 | 67 | 1013.2 |
| 20260504191026 | 81 | 209 | 9.6 | 11.3 | 0.00 | 0.00 | 0.00 | 65 | 1013.4 |
| 20260504190532 | 81 | 200 | 8.7 | 13.0 | 0.00 | 0.00 | 0.00 | 66 | 1013.4 |
| 20260504190020 | 80 | 230 | 7.8 | 10.4 | 0.00 | 0.00 | 0.00 | 66 | 1013.4 |
| 20260504185527 | 79 | 244 | 7.8 | 10.4 | 0.00 | 0.00 | 0.00 | 68 | 1013.4 |
| 20260504185015 | 79 | 177 | 8.7 | 13.0 | 0.00 | 0.00 | 0.00 | 67 | 1013.5 |
| 20260504184522 | 79 | 233 | 8.7 | 12.2 | 0.00 | 0.00 | 0.00 | 68 | 1013.6 |
| 20260504184028 | 79 | 167 | 9.6 | 12.2 | 0.00 | 0.00 | 0.00 | 67 | 1013.7 |
| 20260504183517 | 79 | 190 | 10.4 | 15.6 | 0.00 | 0.00 | 0.00 | 67 | 1014.0 |
| 20260504183023 | 78 | 180 | 7.0 | 10.4 | 0.00 | 0.00 | 0.00 | 69 | 1014.0 |
| 20260504182530 | 79 | 192 | 7.8 | 10.4 | 0.00 | 0.00 | 0.00 | 68 | 1014.2 |
| 20260504182018 | 78 | 169 | 8.7 | 12.2 | 0.00 | 0.00 | 0.00 | 68 | 1014.2 |
| 20260504181524 | 79 | 191 | 7.8 | 13.9 | 0.00 | 0.00 | 0.00 | 67 | 1014.2 |
| 20260504181031 | 79 | 178 | 7.0 | 10.4 | 0.00 | 0.00 | 0.00 | 68 | 1014.2 |
| 20260504180519 | 78 | 220 | 7.0 | 9.6 | 0.00 | 0.00 | 0.00 | 69 | 1014.2 |
| 20260504180026 | 78 | 199 | 7.0 | 9.6 | 0.00 | 0.00 | 0.00 | 69 | 1014.3 |
| 20260504175533 | 79 | 186 | 7.8 | 10.4 | 0.00 | 0.00 | 0.00 | 69 | 1014.3 |
| 20260504175021 | 78 | 206 | 7.8 | 12.2 | 0.00 | 0.00 | 0.00 | 70 | 1014.4 |
| 20260504174528 | 77 | 226 | 7.8 | 11.3 | 0.00 | 0.00 | 0.00 | 72 | 1014.5 |
| 20260504174016 | 76 | 198 | 7.0 | 10.4 | 0.00 | 0.00 | 0.00 | 73 | 1014.6 |
| 20260504173523 | 76 | 196 | 7.0 | 12.2 | 0.00 | 0.00 | 0.00 | 72 | 1014.8 |
| 20260504173029 | 75 | 195 | 9.6 | 12.2 | 0.00 | 0.00 | 0.00 | 73 | 1014.8 |
| 20260504172518 | 75 | 192 | 8.7 | 11.3 | 0.00 | 0.00 | 0.00 | 73 | 1015.1 |
| 20260504172024 | 74 | 211 | 7.8 | 14.8 | 0.00 | 0.00 | 0.00 | 74 | 1015.1 |
| 20260504171531 | 74 | 187 | 8.7 | 13.0 | 0.00 | 0.00 | 0.00 | 74 | 1015.2 |
| 20260504171019 | 74 | 198 | 8.7 | 13.9 | 0.00 | 0.00 | 0.00 | 74 | 1015.3 |
| 20260504170546 | 74 | 199 | 7.8 | 10.4 | 0.00 | 0.00 | 0.00 | 74 | 1015.3 |
| 20260504151031 | 70 | 210 | 8.7 | 11.3 | 0.00 | 0.00 | 0.00 | 77 | 1015.8 |
| 20260504150519 | 71 | 203 | 9.6 | 13.9 | 0.00 | 0.00 | 0.00 | 77 | 1015.8 |
| 20260504141018 | 70 | 183 | 8.7 | 13.0 | 0.00 | 0.00 | 0.00 | 77 | 1015.8 |
| 20260504140525 | 69 | 175 | 6.1 | 13.9 | 0.00 | 0.00 | 0.00 | 78 | 1015.8 |
| 20260504130551 | 65 | 149 | 6.1 | 7.8 | 0.00 | 0.00 | 0.00 | 83 | 1015.8 |
| 20260504110525 | 60 | 224 | 4.3 | 7.0 | 0.00 | 0.00 | 0.00 | 88 | 1015.5 |
| 20260504100531 | 61 | 174 | 5.2 | 7.8 | 0.00 | 0.00 | 0.00 | 86 | 1015.6 |
| 20260504081529 | 62 | 155 | 4.3 | 5.2 | 0.00 | 0.00 | 0.00 | 82 | 1016.0 |
| 20260504081018 | 62 | 185 | 4.3 | 7.0 | 0.00 | 0.00 | 0.00 | 82 | 1016.2 |
| 20260504080525 | 62 | 184 | 4.3 | 7.0 | 0.00 | 0.00 | 0.00 | 82 | 1016.2 |
| 20260504050524 | 66 | 173 | 7.0 | 8.7 | 0.00 | 0.00 | 0.00 | 68 | 1018.2 |
| 20260504045519 | 66 | 171 | 6.1 | 7.8 | 0.00 | 0.00 | 0.00 | 66 | 1018.1 |
| 20260504045026 | 66 | 177 | 4.3 | 6.1 | 0.00 | 0.00 | 0.00 | 64 | 1018.3 |
| 20260504044532 | 66 | 187 | 5.2 | 7.8 | 0.00 | 0.00 | 0.00 | 63 | 1018.4 |
| 20260504044021 | 66 | 161 | 5.2 | 7.8 | 0.00 | 0.00 | 0.00 | 62 | 1018.4 |
| 20260504043527 | 67 | 174 | 5.2 | 7.0 | 0.00 | 0.00 | 0.00 | 62 | 1018.4 |